Location: Hylvaty SDH
(49.9612°N, 16.4057°E)
Time: 03:51:52
(UTC+01:00)

Tiros 1 despin weight - Pass Details

Date: 20 January 2021
Orbit: 593 x 642 km, 48.2° (Epoch: 24 February)

Event Time Altitude Azimuth Distance (km) Brightness Sun altitude
Rises 20:14:05 0° 279° (W) 2,844 ? -35.6°
Reaches altitude 10° 20:16:27 10° 273° (W) 1,934 ? -36.0°
Enters shadow 20:17:23 16° 269° (W) 1,598 ? -36.2°
